Weather Roundup
Issued by NWS Springfield, MO

Home | Current Version | Previous Version | Text Only | Print | Product List | Glossary On
Versions: 1 2 3 4 5 6 7 8 9 10 11 12 13 14 15 16 17 18 19 20 21 22 23 24 25 26 27 28 29 30 31 32 33 34 35 36 37 38 39 40 41 42 43 44 45 46 47 48 49 50
000
NZUS99 KSGF 250259
HRRSGF

HOURLY WEATHER
NATIONAL WEATHER SERVICE SPRINGFIELD MO
900 PM CST WED DEC 24 2014

......SGF CWA......

CITY           SKY/WX    TMP DP  RH WIND       PRES   REMARKS
SPRINGFIELD    CLOUDY    35  29  78 W10       29.91R WCI  27
JOPLIN         CLEAR     31  27  85 S6        29.92F WCI  25
WEST PLAINS    CLOUDY    37  30  75 W7        29.90R WCI  32
ROLLA          CLOUDY    35  32  88 W9        29.83S WCI  28
OSAGE BEACH    CLOUDY    37  28  70 W12G17    29.88R WCI  30

......SURROUNDING SGF CWA......

CITY           SKY/WX    TMP DP  RH WIND       PRES   REMARKS
CHANUTE        CLEAR     28  26  92 S7        29.88F WCI  21
PARSONS        CLEAR     31  28  89 S3        29.91S
COFFEYVILLE    CLEAR     31  28  89 S6        29.91S WCI  25
EMPORIA        CLEAR     28  26  92 S12       29.82F WCI  18
SILOAM SPRINGS CLEAR     34  25  69 S6        29.96F WCI  29
HARRISON AR    CLOUDY    36  29  75 W9        29.95R WCI  29
NEAR YELLVILLE CLOUDY    39  28  65 W9        29.94R WCI  33

......KANSAS AND MISSOURI......

CITY           SKY/WX    TMP DP  RH WIND       PRES   REMARKS
KANSAS CTY INT CLOUDY    33  29  85 SW12      29.82F WCI  24
DOWNTOWN KC    CLOUDY    35  28  75 SW10G21   29.84F WCI  27
COLUMBIA       CLOUDY    37  33  85 W9        29.84R WCI  30
SEDALIA        CLOUDY    36  29  75 W9        29.86S WCI  29
ST JOSEPH      CLOUDY    32  28  85 SW8       29.82F WCI  25
ST LOUIS       CLOUDY    39  33  79 W12       29.82S WCI  32
SPIRIT OF STL  CLOUDY    37  34  89 W6        29.82R WCI  32
KIRKSVILLE     CLOUDY    34  30  85 W12       29.78F WCI  25
WICHITA        PTCLDY    30  22  72 S9        29.82F WCI  22
TOPEKA         CLEAR     32  28  85 S3        29.82F
OLATHE         CLOUDY    33  29  85 SW6       29.83F WCI  28

......TENNESSEE......

CITY           SKY/WX    TMP DP  RH WIND       PRES   REMARKS
MEMPHIS        CLOUDY    43  36  76 W8        29.97R
NASHVILLE      CLOUDY    43  36  76 W8        29.89R

......ARKANSAS.......

CITY           SKY/WX    TMP DP  RH WIND       PRES   REMARKS
FAYETTEVILLE   MOCLDY    33  29  85 S5        29.97R WCI  29
FT SMITH       CLEAR     33  30  88 CALM      30.01R
LITTLE ROCK    CLOUDY    43  30  60 W9        30.02R

......OKLAHOMA.......

CITY           SKY/WX    TMP DP  RH WIND       PRES   REMARKS
TULSA          CLEAR     36  31  82 S8        29.94S WCI  30
PONCA CITY     CLEAR     34  25  69 S6        29.88F WCI  29
MCALESTER      CLEAR     31  28  89 SW3       30.00R
OKLAHOMA CITY  CLEAR     33  24  69 SE7       29.92F WCI  27

......IOWA............

CITY           SKY/WX    TMP DP  RH WIND       PRES   REMARKS
DES MOINES     CLOUDY    32  28  85 W15       29.73F WCI  22
QUAD CITIES    CLOUDY    36  30  79 W14       29.68S WCI  27

......ILLINOIS........

CITY           SKY/WX    TMP DP  RH WIND       PRES   REMARKS
QUINCY         CLOUDY    36  29  75 NW13      29.78R WCI  27
CHICAGO        CLOUDY    36  32  85 W15       29.56R WCI  27




USA.gov is the U.S. government's official web portal to all federal, state and local government web resources and services.